Warsaw, Poland

10:22 AM CET on February 22, 2017 (GMT +0100)
Warsaw Frederic Chopin Airport

Weather History for EPWA - May, 2013

Change the Weather History Date:

Friday, May 10, 2013

  Actual Average Record
Temperature  
Mean Temperature 70 °F -  
Max Temperature 81 °F 68 °F 81 °F (2013)
Min Temperature 59 °F 48 °F 35 °F (2005)
Cooling Degree Days 5    
Growing Degree Days 20 (Base 50)    
Moisture  
Dew Point 54 °F    
Average Humidity 57    
Maximum Humidity 88    
Minimum Humidity 23    
Precipitation  
Precipitation 0.20 in 0.08 in - ()
Sea Level Pressure  
Sea Level Pressure 29.87 in    
Wind  
Wind Speed 4 mph ()    
Max Wind Speed 13 mph    
Max Gust Speed -    
Visibility 9.5 miles    
Events Rain , Thunderstorm    
Averages and records for this station are not official NWS values.
T = Trace of Precipitation, MM = Missing Value Source: Averaged Metar Reports

Daily Weather History Graph

Daily Weather History Graph

Search for Another Location

Airport or City:

Trip Planner

Search our weather history database for the weather conditions in past years. The results will help you decide how hot, cold, wet, or windy it might be!

Date:

Astronomy

May. 10, 2013 Rise Set
Actual Time 4:49 AM CEST 8:16 PM CEST
Civil Twilight 4:08 AM CEST 8:57 PM CEST
Nautical Twilight 3:13 AM CEST 9:53 PM CEST
Astronomical Twilight 1:54 AM CEST 11:15 PM CEST
Moon 5:02 AM CEST (5/10) 8:51 PM CEST (5/10)
Length of Visible Light 16h 49m
Length of Day
15h 26m
New Moon, 0% of the Moon is Illuminated
May 10
New Moon
May 18
First Quarter
May 25
Full
May 31
Last Quarter
Jun 8
New

Hourly Weather History & Observations

Time (CEST) Temp. Dew Point Humidity Pressure Visibility Wind Dir Wind Speed Gust Speed Precip Events Conditions
12:00 AM 64.4 °F 55.4 °F 73% 29.95 in - Variable 2.3 mph - N/A   Clear
12:30 AM 64.4 °F 55.4 °F 73% 29.92 in - Calm Calm - N/A   Clear
1:00 AM 64.4 °F 55.4 °F 73% 29.95 in - Variable 2.3 mph - N/A   Clear
1:30 AM 62.6 °F 55.4 °F 77% 29.92 in - South 2.3 mph - N/A   Clear
2:00 AM 60.8 °F 55.4 °F 82% 29.92 in - ESE 3.5 mph - N/A   Clear
2:30 AM 60.8 °F 55.4 °F 82% 29.92 in - SE 3.5 mph - N/A   Clear
3:00 AM 60.8 °F 55.4 °F 82% 29.92 in - SE 2.3 mph - N/A   Clear
3:30 AM 60.8 °F 55.4 °F 82% 29.92 in - SSE 2.3 mph - N/A   Clear
4:00 AM 60.8 °F 55.4 °F 82% 29.92 in - Variable 2.3 mph - N/A   Clear
4:30 AM 60.8 °F 55.4 °F 82% 29.89 in 6.2 mi SSE 4.6 mph - N/A   Partly Cloudy
5:00 AM 60.8 °F 55.4 °F 82% 29.89 in - SW 2.3 mph - N/A   Clear
5:30 AM 59.0 °F 55.4 °F 88% 29.89 in - Calm Calm - N/A   Clear
6:00 AM 60.8 °F 55.4 °F 82% 29.89 in - SE 4.6 mph - N/A   Clear
6:30 AM 64.4 °F 55.4 °F 73% 29.89 in - SSE 4.6 mph - N/A   Clear
7:00 AM 64.4 °F 55.4 °F 73% 29.89 in - SSE 3.5 mph - N/A   Clear
7:30 AM 64.4 °F 57.2 °F 77% 29.89 in - SSE 3.5 mph - N/A   Clear
8:00 AM 67 °F 56 °F 58% 29.91 in 9 mi SE 2.2 mph - -   Partly Cloudy
8:00 AM 66.2 °F 55.4 °F 68% 29.89 in - SSE 4.6 mph - N/A   Clear
8:30 AM 68.0 °F 55.4 °F 64% 29.89 in - Variable 3.5 mph - N/A   Clear
9:00 AM 71.6 °F 57.2 °F 60% 29.92 in - Variable 3.5 mph - N/A   Clear
9:30 AM 71.6 °F 57.2 °F 60% 29.92 in - Variable 3.5 mph - N/A   Clear
10:00 AM 75.2 °F 53.6 °F 47% 29.89 in - WSW 5.8 mph - N/A   Clear
10:30 AM 75.2 °F 51.8 °F 44% 29.89 in - WSW 5.8 mph - N/A   Clear
11:00 AM 76 °F 51 °F 31% 29.90 in 19 mi SW 4.5 mph - -   Clear
11:00 AM 77.0 °F 50.0 °F 39% 29.89 in - WSW 6.9 mph - N/A   Clear
11:30 AM 77.0 °F 53.6 °F 44% 29.89 in - WSW 6.9 mph - N/A   Clear
12:00 PM 78.8 °F 51.8 °F 39% 29.89 in - SSW 8.1 mph - N/A   Clear
12:30 PM 77.0 °F 51.8 °F 41% 29.89 in - SW 5.8 mph - N/A   Clear
1:00 PM 78.8 °F 55.4 °F 44% 29.89 in - WSW 4.6 mph - N/A   Clear
1:30 PM 78.8 °F 51.8 °F 39% 29.89 in - Variable 3.5 mph - N/A   Clear
2:00 PM 81 °F 50 °F 23% 29.87 in 19 mi South 6.7 mph - -   Scattered Clouds
2:00 PM 80.6 °F 51.8 °F 37% 29.89 in - South 6.9 mph - N/A   Clear
2:30 PM 80.6 °F 50.0 °F 34% 29.86 in - South 6.9 mph - N/A   Clear
3:00 PM 78.8 °F 51.8 °F 39% 29.86 in - SSW 8.1 mph - N/A   Clear
3:30 PM 78.8 °F 51.8 °F 39% 29.86 in - SSW 9.2 mph - N/A   Clear
4:00 PM 78.8 °F 51.8 °F 39% 29.83 in - SSW 9.2 mph - N/A   Clear
4:30 PM 78.8 °F 51.8 °F 39% 29.83 in - SSW 6.9 mph - N/A   Clear
5:00 PM 79 °F 51 °F 27% 29.82 in 19 mi SSE 2.2 mph - -   Scattered Clouds
5:00 PM 78.8 °F 51.8 °F 39% 29.83 in - South 6.9 mph - N/A   Clear
5:30 PM 78.8 °F 51.8 °F 39% 29.83 in - SSW 8.1 mph - N/A   Clear
6:00 PM 78.8 °F 53.6 °F 42% 29.80 in - SSW 8.1 mph - N/A   Clear
6:30 PM 78.8 °F 53.6 °F 42% 29.80 in - SSW 5.8 mph - N/A   Clear
7:00 PM 77.0 °F 53.6 °F 44% 29.80 in - South 4.6 mph - N/A   Clear
7:30 PM 75.2 °F 53.6 °F 47% 29.80 in - South 5.8 mph - N/A   Clear
8:00 PM 74 °F 54 °F 39% 29.81 in 12 mi Calm Calm - -   Partly Cloudy
8:00 PM 73.4 °F 55.4 °F 53% 29.80 in 6.2 mi WSW 4.6 mph - N/A   Partly Cloudy
8:30 PM 73.4 °F 48.2 °F 41% 29.83 in 6.2 mi Variable 2.3 mph - N/A Rain , Thunderstorm Light Thunderstorms and Rain
9:00 PM 66.2 °F 55.4 °F 68% 29.83 in 6.2 mi East 5.8 mph - N/A Thunderstorm Thunderstorm
9:30 PM 66.2 °F 55.4 °F 68% 29.83 in 6.2 mi Variable 2.3 mph - N/A Thunderstorm Scattered Clouds
10:00 PM 66.2 °F 55.4 °F 68% 29.83 in 6.2 mi Calm Calm - N/A   Partly Cloudy
10:30 PM 68.0 °F 53.6 °F 60% 29.83 in - Calm Calm - N/A   Clear
11:00 PM 64 °F 55 °F 66% 29.86 in 6 mi West 13.4 mph - - Rain Heavy Rain Showers
11:00 PM 66.2 °F 55.4 °F 68% 29.86 in 6.2 mi West 12.7 mph - N/A Rain Light Rain Showers
11:30 PM 62.6 °F 59.0 °F 88% 29.89 in 6.2 mi West 9.2 mph - N/A Rain Light Rain Showers